User: anonymous   Login
Location: Cypress Hills Dark-Sky Preserve - CHICO
(49.6176°N, 110.2634°W)
Time: 04:05:18
(UTC-06:00)
Language:

SPOT 5 - Orbit

View from above orbital plane
View from above orbital plane
View from above satellite
View from above satellite

Ground track
Ground track

The orbit data is extracted from the following two-line orbital elements,

1 27421U 02021A   16206.78111496  .00000039  00000-0  20791-4 0  9998
2 27421  98.4536 262.8694 0134190 250.1300 108.5385 14.51807719738167
Epoch (UTC): 24 July 2016 18:44:48
Eccentricity: 0.0134190
inclination: 98.4536°
perigee height: 624 km
apogee height: 815 km
right ascension of ascending node: 262.8694°
argument of perigee: 250.1300°
revolutions per day: 14.51807719
mean anomaly at epoch: 108.5385°
orbit number at epoch: 73816

The dashed part of the orbit path shows where the satellite is in the earth's shadow,  

DLR